User: anonymous   Login
Location: Allison's Woods
(35.8809°N, 80.8140°W)
Time: 10:01:07
(UTC-04:00)
Language:

Iridium 39 - Orbit

View from above orbital plane
View from above orbital plane
View from above satellite
View from above satellite

Ground track
Ground track

The orbit data is extracted from the following two-line orbital elements,

1 25042U 97069D   14304.47607115  .00000474  00000-0  16217-3 0   308
2 25042 086.3994 063.3086 0002251 106.7129 253.4313 14.34211173888750
Epoch (UTC): 31 October 2014 11:25:32
Eccentricity: 0.0002251
inclination: 86.3994°
perigee height: 776 km
apogee height: 779 km
right ascension of ascending node: 63.3086°
argument of perigee: 106.7129°
revolutions per day: 14.34211173
mean anomaly at epoch: 253.4313°
orbit number at epoch: 88875

The dashed part of the orbit path shows where the satellite is in the earth's shadow,  

DLR